Weather History for Stansted, United Kingdom

Change the Weather History Date:

Tuesday, November 13, 2012

  Actual Average Record
Temperature  
Mean Temperature 52 °F -  
Max Temperature 57 °F 45 °F 59 °F (2006)
Min Temperature 46 °F 36 °F 30 °F (1997)
Degree Days  
Heating Degree Days 14    
Growing Degree Days 2 (Base 50)    
Moisture  
Dew Point 49 °F    
Average Humidity 88    
Maximum Humidity 100    
Minimum Humidity 67    
Precipitation  
Precipitation 0.00 in - - ()
Sea Level Pressure  
Sea Level Pressure 30.29 in    
Wind  
Wind Speed 9 mph ()    
Max Wind Speed 15 mph    
Max Gust Speed -    
Visibility 5.5 miles    
Events      
Averages and records for this station are not official NWS values.
T = Trace of Precipitation, MM = Missing Value Source: Averaged Metar Reports

Daily Weather History Graph

Daily Weather History Graph

Search for Another Location

Airport:

Trip Planner

Search our weather history database for the weather conditions in past years. The results will help you decide how hot, cold, wet, or windy it might be!

Date:

Astronomy

Nov. 13, 2012 Rise Set
Actual Time 7:15 AM GMT 4:10 PM GMT
Civil Twilight 6:38 AM GMT 4:47 PM GMT
Nautical Twilight 5:57 AM GMT 5:28 PM GMT
Astronomical Twilight 5:17 AM GMT 6:08 PM GMT
Moon 6:35 AM GMT (11/13) 3:49 PM GMT (11/13)
Length of Visible Light 10h 09m
Length of Day
8h 55m
Waning Crescent, 0% of the Moon is Illuminated
Nov 13
Waning Crescent
Nov 13
New
Nov 20
First Quarter
Nov 28
Full
Dec 6
Last Quarter

Hourly Weather History & Observations

Time (GMT) Temp. Windchill Dew Point Humidity Pressure Visibility Wind Dir Wind Speed Gust Speed Precip Events Conditions
12:20 AM 51.8 °F - 50.0 °F 94% 30.21 in 3.7 mi SW 8.1 mph - N/A   Mostly Cloudy
12:50 AM 51.8 °F - 50.0 °F 94% 30.21 in 5.0 mi SW 11.5 mph - N/A   Mostly Cloudy
1:20 AM 51.8 °F - 50.0 °F 94% 30.21 in 5.0 mi SW 10.4 mph - N/A   Mostly Cloudy
1:50 AM 51.8 °F - 50.0 °F 94% 30.21 in 5.0 mi SW 10.4 mph - N/A   Mostly Cloudy
2:20 AM 50.0 °F - 50.0 °F 100% 30.21 in 5.0 mi SW 11.5 mph - N/A   Unknown
2:50 AM 50.0 °F - 48.2 °F 94% 30.21 in 4.3 mi SW 9.2 mph - N/A   Unknown
3:20 AM 50.0 °F - 48.2 °F 94% 30.21 in 5.6 mi SW 10.4 mph - N/A   Unknown
3:50 AM 50.0 °F - 48.2 °F 94% 30.24 in - SW 10.4 mph - N/A   Clear
4:20 AM 50.0 °F - 48.2 °F 94% 30.24 in - SW 11.5 mph - N/A   Clear
4:50 AM 50.0 °F - 48.2 °F 94% 30.24 in - WSW 9.2 mph - N/A   Clear
5:20 AM 50.0 °F - 46.4 °F 87% 30.24 in - SW 10.4 mph - N/A   Clear
5:50 AM 48.2 °F - 46.4 °F 93% 30.24 in - SW 8.1 mph - N/A   Clear
6:20 AM 46.4 °F 41.9 °F 46.4 °F 100% 30.27 in - SW 9.2 mph - N/A   Clear
6:50 AM 46.4 °F 41.9 °F 46.4 °F 100% 30.27 in 5.6 mi SW 9.2 mph - N/A   Scattered Clouds
7:20 AM 48.2 °F - 46.4 °F 93% 30.27 in 3.7 mi SW 9.2 mph - N/A   Scattered Clouds
7:50 AM 48.2 °F - 48.2 °F 100% 30.30 in 3.7 mi SSW 9.2 mph - N/A   Scattered Clouds
8:20 AM 48.2 °F - 48.2 °F 100% 30.30 in 2.5 mi SW 9.2 mph - N/A   Partly Cloudy
8:50 AM 50.0 °F - 48.2 °F 94% 30.30 in 2.5 mi SW 9.2 mph - N/A   Partly Cloudy
9:20 AM 50.0 °F - 48.2 °F 94% 30.33 in 3.7 mi SW 9.2 mph - N/A   Unknown
9:50 AM 51.8 °F - 50.0 °F 94% 30.33 in 6.2 mi SW 10.4 mph - N/A   Partly Cloudy
10:20 AM 53.6 °F - 50.0 °F 88% 30.33 in 6.2 mi SW 11.5 mph - N/A   Partly Cloudy
10:50 AM 55.4 °F - 50.0 °F 82% 30.33 in 6.2 mi SW 11.5 mph - N/A   Partly Cloudy
11:20 AM 55.4 °F - 50.0 °F 82% 30.33 in 6.2 mi SW 11.5 mph - N/A   Partly Cloudy
11:50 AM 57.2 °F - 48.2 °F 72% 30.30 in - SSW 13.8 mph - N/A   Clear
12:20 PM 57.2 °F - 48.2 °F 72% 30.30 in - SW 13.8 mph - N/A   Clear
12:50 PM 57.2 °F - 46.4 °F 67% 30.30 in 6.2 mi SW 15.0 mph - N/A   Partly Cloudy
1:20 PM 57.2 °F - 46.4 °F 67% 30.30 in 6.2 mi SW 13.8 mph - N/A   Partly Cloudy
1:50 PM 57.2 °F - 46.4 °F 67% 30.30 in 6.2 mi SW 15.0 mph - N/A   Partly Cloudy
2:20 PM 57.2 °F - 48.2 °F 72% 30.30 in 6.2 mi SW 12.7 mph - N/A   Scattered Clouds
2:50 PM 55.4 °F - 48.2 °F 77% 30.30 in 6.2 mi SSW 8.1 mph - N/A   Overcast
3:20 PM 55.4 °F - 48.2 °F 77% 30.30 in 6.2 mi SSW 9.2 mph - N/A   Mostly Cloudy
3:50 PM 55.4 °F - 50.0 °F 82% 30.30 in 6.2 mi SSW 6.9 mph - N/A   Mostly Cloudy
4:20 PM 55.4 °F - 50.0 °F 82% 30.30 in 6.2 mi South 8.1 mph - N/A   Overcast
4:50 PM 55.4 °F - 50.0 °F 82% 30.30 in 6.2 mi South 9.2 mph - N/A   Overcast
5:20 PM 55.4 °F - 50.0 °F 82% 30.30 in 6.2 mi South 9.2 mph - N/A   Overcast
5:50 PM 53.6 °F - 50.0 °F 88% 30.33 in 6.2 mi South 9.2 mph - N/A   Overcast
6:20 PM 53.6 °F - 50.0 °F 88% 30.33 in 6.2 mi South 9.2 mph - N/A   Overcast
6:50 PM 53.6 °F - 50.0 °F 88% 30.33 in 6.2 mi South 11.5 mph - N/A   Overcast
7:20 PM 53.6 °F - 50.0 °F 88% 30.33 in 6.2 mi South 9.2 mph - N/A   Overcast
7:50 PM 53.6 °F - 50.0 °F 88% 30.33 in 6.2 mi South 8.1 mph - N/A   Overcast
8:20 PM 53.6 °F - 50.0 °F 88% 30.33 in 6.2 mi South 8.1 mph - N/A   Overcast
8:50 PM 53.6 °F - 50.0 °F 88% 30.33 in 6.2 mi South 8.1 mph - N/A   Overcast
9:20 PM 51.8 °F - 50.0 °F 94% 30.36 in 5.6 mi SSE 8.1 mph - N/A   Overcast
9:50 PM 51.8 °F - 50.0 °F 94% 30.36 in 6.2 mi SSE 6.9 mph - N/A   Overcast
10:20 PM 51.8 °F - 50.0 °F 94% 30.36 in 5.6 mi South 9.2 mph - N/A   Mostly Cloudy
10:50 PM 51.8 °F - 50.0 °F 94% 30.36 in 5.0 mi SSE 6.9 mph - N/A   Overcast
11:20 PM 51.8 °F - 50.0 °F 94% 30.36 in 5.0 mi SSE 6.9 mph - N/A   Mostly Cloudy
11:50 PM 51.8 °F - 50.0 °F 94% 30.36 in 5.6 mi South 5.8 mph - N/A   Mostly Cloudy